Tracking 28052 objects as of 23-Sep-2023
HD Live streaming from Space Station
objects crossing your sky now

STARLINK-3939

Track STARLINK-3939 now!
10-day predictions
STARLINK-3939 is classified as:


NORAD ID: 52545
Int'l Code: 2022-051N
Perigee: 545.9 km
Apogee: 547.9 km
Inclination: 53.2 °
Period: 95.4 minutes
Semi major axis: 6917 km
RCS: Unknown
Launch date: May 13, 2022
Source: United States (US)
Launch site: AIR FORCE WESTERN TEST RANGE (AFWTR)
Your satellite tracking list
Your tracking list is empty




NASA's NSSDC Master Catalog

Two Line Element Set (TLE):
1 52545U 22051N   23265.14783603  .00003665  00000-0  24820-3 0  9990
2 52545  53.2173 207.3223 0001447 110.3581 249.7566 15.08844176 75711
Source of the keplerian elements: AFSPC